[[{"header":{"parameterUnit":"m.s-1","parameterCategory":2,"la1":30.2991,"la2":30.254,"lo1":-89.0895,"lo2":-89.0444,"dy":0.0017,"dx":0.0017,"nx":28,"ny":28,"refTime":"2024-03-21T09:00:00:Z","depth":"0","parameterNumber":2,"parameterNumberName":"U-component_of_CURRENTS"},"data":[0,0,0,0,0,0,0,0,0,0,0,0,0,0,0,0,0,0,0,0,0,0,0,0,0,0,0,0,0,0,0,0,0,0,0,0,0,0,0,0,0,0,0,0,0,0,0,0,0,0,0,0,0,0,0,0,0,0,0.2758,0.2758,0,0.2693,0.2692,0.2691,0.2609,0.2608,0.2607,0.2607,0.2432,0.2428,0.2425,0,0,0,0,0,0,0,0,0,0,0,0,0,0.2773,0.2773,0.2758,0.2758,0.2757,0.2693,0.2692,0.269,0.2609,0.2608,0.2607,0.2606,0.2433,0.2429,0.2424,0,0,0,0,0,0,0,0,0,0,0,0,0,0.2739,0.2773,0.2758,0.2712,0.2708,0.2693,0.2692,0.269,0.261,0.2608,0.2607,0.2606,0.2435,0.2429,0.2424,0.2415,0,0,0.2406,0.2404,0,0,0,0,0,0,0,0,0.2741,0.2738,0.272,0.2716,0.2711,0.2662,0.2633,0.2594,0.261,0.2643,0.2607,0.2605,0.2502,0.2491,0.2477,0.2407,0.24,0.2406,0.2402,0.24,0.2398,0,0,0,0,0,0,0,0.2743,0.274,0.2728,0.2719,0.2714,0.2681,0.2675,0.2625,0.2575,0.264,0.2635,0.2634,0.2498,0.2483,0.2472,0.2397,0.2406,0.2401,0.2397,0.2395,0.2356,0.2358,0,0,0,0,0,0,0.2764,0.2743,0.273,0.2726,0.2727,0.2683,0.2675,0.2675,0.2578,0.2564,0.2636,0.2631,0.2493,0.2479,0.2466,0.2492,0.24,0.2394,0.2391,0.2354,0.2356,0.2359,0,0,0,0,0,0,0.2764,0.2763,0.2733,0.2736,0.2731,0.2685,0.2685,0.2675,0.2661,0.2577,0.256,0.2633,0.2492,0.2474,0.2451,0.2482,0.2392,0.2387,0.2351,0.2354,0.2358,0.2516,0,0,0,0,0,0,0.2765,0.2764,0.277,0.2738,0.2731,0.2732,0.2686,0.2675,0.2665,0.2658,0.2569,0.2552,0.2489,0.246,0.2445,0.2473,0.2382,0.2348,0.2352,0.2357,0.2508,0.2525,0.2539,0,0,0,0,0,0.2766,0.2774,0.277,0.2769,0.2741,0.2734,0.2727,0.2686,0.2667,0.2667,0.2627,0.2555,0.2477,0.2458,0.2439,0.2466,0.2345,0.2351,0.2356,0.2501,0.2521,0.2539,0,0,0,0,0,0,0.2775,0.2767,0.2761,0.2765,0.2758,0.2721,0.2718,0.27,0.2669,0.2662,0.2581,0.2562,0.2557,0.2496,0.2476,0.2472,0.2401,0.2403,0.2517,0.2535,0.2551,0.2511,0.2377,0,0,0,0,0,0.2787,0.2792,0.2783,0.2785,0.2788,0.276,0.2752,0.2733,0.2705,0.2689,0.2635,0.2587,0.2566,0.2539,0.25,0.2491,0.2453,0.2499,0.2515,0.2529,0.2487,0.2502,0.2514,0.2377,0.2377,0.2377,0,0,0.2788,0.2788,0.2787,0.2789,0.2778,0.2783,0.275,0.275,0.275,0.2675,0.2657,0.2637,0.2579,0.2581,0.2571,0.253,0.2561,0.2535,0.2547,0.2496,0.2508,0.2522,0.2533,0.238,0.238,0.2379,0,0,0.2801,0.2801,0.2813,0.2816,0.282,0.2805,0.2814,0.2795,0.2784,0.2782,0.2744,0.2746,0.2687,0.2666,0.2646,0.2721,0.265,0.2717,0.275,0.2769,0.2779,0.2788,0.281,0.2819,0.2718,0.2718,0.2718,0,0.2808,0.2814,0.2815,0.2833,0.2828,0.2821,0.2829,0.2828,0.2805,0.2796,0.279,0.2755,0.2724,0.2725,0.2762,0.2752,0.2749,0.2688,0.2789,0.2796,0.2802,0.2822,0.283,0.2726,0.2725,0.2724,0.2724,0,0.2821,0.2835,0.2844,0.2859,0.2862,0.2867,0.2873,0.2877,0.2872,0.286,0.2869,0.2857,0.282,0.2847,0.2822,0.2858,0.2841,0.2818,0.2741,0.2825,0.2842,0.2847,0.2738,0.2735,0.2733,0.2731,0,0,0.2804,0.2846,0.2847,0.2849,0.2872,0.2865,0.2892,0.2891,0.2885,0.2904,0.2896,0.292,0.2909,0.2885,0.2883,0.2907,0.2993,0.2883,0.2881,0.2903,0.3042,0.2998,0.2999,0.2996,0.2997,0.2998,0.3055,0,0.2807,0.2834,0.2857,0.2865,0.2867,0.2881,0.2893,0.29,0.2903,0.29,0.2922,0.2915,0.2927,0.2927,0.2961,0.2964,0.3005,0.2978,0.2952,0.2951,0.29,0.3002,0.2789,0.2817,0.306,0.306,0.3061,0,0.279,0.2812,0.2824,0.2843,0.2846,0.285,0.2841,0.2859,0.2877,0.2886,0.2903,0.2906,0.2942,0.2948,0.3002,0.2987,0.3018,0.3036,0.3039,0.2923,0.2915,0.276,0.2817,0.2635,0.3068,0.3068,0.3067,0,0.2723,0.2772,0.2771,0.2778,0.2812,0.2809,0.2821,0.2836,0.2846,0.2867,0.2873,0.291,0.2921,0.2971,0.3018,0.3013,0.3077,0.3073,0.3069,0.3067,0.2833,0.2808,0.269,0.3118,0.3118,0.3118,0.3118,0,0.2683,0.2677,0.2734,0.2727,0.2726,0.2757,0.2748,0.2773,0.28,0.2813,0.2851,0.2871,0.2926,0.2971,0.3021,0.3059,0.3086,0.3072,0.3076,0.289,0.2871,0.2655,0.2628,0.312,0.312,0.3119,0.3119,0,0.2594,0.2633,0.2638,0.2681,0.269,0.2682,0.2718,0.272,0.2747,0.2769,0.278,0.2839,0.2908,0.297,0.3045,0.3046,0.2979,0.3109,0.2891,0.2868,0.2677,0.2669,0.2533,0.2477,0.3101,0.31,0.3099,0,0.2553,0.2547,0.2598,0.2611,0.2627,0.2632,0.2646,0.2688,0.2706,0.2757,0.2773,0.2833,0.2889,0.2975,0.2982,0.3046,0.2959,0.2871,0.2818,0.2631,0.2626,0.2571,0.2532,0.2596,0.2591,0.2587,0.2584,0,0.2489,0.2506,0.2521,0.2555,0.2571,0.2596,0.2619,0.2627,0.2683,0.2698,0.2744,0.2786,0.2848,0.2801,0.2855,0.2862,0.2658,0.2795,0.2634,0.2245,0.2138,0.2096,0.2613,0.255,0.2553,0.2556,0.2558,0.2559,0.2448,0.2448,0.2484,0.2504,0.2535,0.2563,0.2534,0.2576,0.2595,0.2572,0.2677,0.2651,0.2571,0.262,0.2601,0.2336,0.2493,0.2193,0.2214,0.2186,0.2066,0.2525,0.2448,0.2451,0.2454,0.2456,0.2458,0,0.242,0.2428,0.244,0.2461,0.246,0.2502,0.2519,0.2458,0.2442,0.2458,0.246,0.2314,0.2188,0.2096,0.1864,0.1724,0.1664,0.1629,0.1443,0.1453,0.1844,0.1748,0.1472,0.1472,0.1473,0.1473,0.1473,0.1473,0.2404,0.2404,0.2402,0.2387,0.239,0.2327,0.2311,0.225,0.2224,0.208,0.1967,0.1932,0.1771,0.1448,0.1153,0.1118,0.1027,0.0964,0.1069,0.1242,0.1292,0.1341,0.1236,0.0858,0.0858,0.0526,0.0523,0.052]},{"header":{"parameterUnit":"m.s-1","parameterCategory":2,"la1":30.2991,"la2":30.254,"lo1":-89.0895,"lo2":-89.0444,"dy":0.0017,"dx":0.0017,"nx":28,"ny":28,"refTime":"2024-03-21T09:00:00:Z","depth":"0","parameterNumber":3,"parameterNumberName":"V-component_of_CURRENTS"},"data":[0,0,0,0,0,0,0,0,0,0,0,0,0,0,0,0,0,0,0,0,0,0,0,0,0,0,0,0,0,0,0,0,0,0,0,0,0,0,0,0,0,0,0,0,0,0,0,0,0,0,0,0,0,0,0,0,0,0,-0.0895,-0.0894,0,-0.0852,-0.0851,-0.0851,-0.0811,-0.0811,-0.081,-0.081,-0.0815,-0.0816,-0.0816,0,0,0,0,0,0,0,0,0,0,0,0,0,-0.089,-0.0891,-0.0895,-0.0894,-0.0894,-0.0852,-0.0851,-0.085,-0.0811,-0.0811,-0.081,-0.081,-0.0815,-0.0816,-0.0816,0,0,0,0,0,0,0,0,0,0,0,0,0,-0.0873,-0.0891,-0.0895,-0.0871,-0.0868,-0.0852,-0.0851,-0.085,-0.0811,-0.0811,-0.081,-0.081,-0.0815,-0.0816,-0.0816,-0.0829,0,0,-0.0818,-0.0819,0,0,0,0,0,0,0,0,-0.0874,-0.0873,-0.0875,-0.0872,-0.087,-0.0838,-0.0852,-0.0846,-0.0811,-0.0831,-0.081,-0.081,-0.0829,-0.0829,-0.0818,-0.0829,-0.083,-0.0818,-0.0819,-0.0819,-0.0819,0,0,0,0,0,0,0,-0.0875,-0.0874,-0.0876,-0.0874,-0.0871,-0.0845,-0.0842,-0.085,-0.0832,-0.0829,-0.0827,-0.0825,-0.0828,-0.0817,-0.0818,-0.083,-0.0818,-0.0819,-0.0819,-0.082,-0.0848,-0.0849,0,0,0,0,0,0,-0.0888,-0.0876,-0.0877,-0.0875,-0.0873,-0.0845,-0.0842,-0.0847,-0.0831,-0.0828,-0.0826,-0.0824,-0.0817,-0.0817,-0.0818,-0.0837,-0.0819,-0.082,-0.082,-0.0848,-0.0848,-0.0849,0,0,0,0,0,0,-0.0888,-0.0889,-0.0879,-0.0875,-0.0872,-0.0847,-0.0852,-0.0847,-0.0838,-0.0828,-0.0826,-0.0823,-0.0816,-0.0817,-0.083,-0.0837,-0.082,-0.082,-0.0847,-0.0848,-0.0848,-0.0872,0,0,0,0,0,0,-0.0888,-0.0889,-0.0897,-0.0876,-0.0873,-0.0876,-0.0852,-0.0846,-0.0839,-0.0836,-0.0826,-0.0825,-0.0816,-0.083,-0.0831,-0.0837,-0.0821,-0.0847,-0.0848,-0.0848,-0.0871,-0.0874,-0.0876,0,0,0,0,0,-0.0888,-0.0901,-0.0898,-0.0898,-0.0885,-0.0877,-0.0873,-0.0851,-0.0839,-0.084,-0.0834,-0.0826,-0.0835,-0.0831,-0.0832,-0.0839,-0.0846,-0.0847,-0.0848,-0.087,-0.0873,-0.0876,0,0,0,0,0,0,-0.0898,-0.0898,-0.0894,-0.0905,-0.0896,-0.0871,-0.0871,-0.0857,-0.085,-0.085,-0.0837,-0.0836,-0.0847,-0.0844,-0.0839,-0.0849,-0.0837,-0.0839,-0.0853,-0.0856,-0.0859,-0.0855,-0.0821,0,0,0,0,0,-0.0908,-0.092,-0.091,-0.0919,-0.0918,-0.0896,-0.0891,-0.0878,-0.0869,-0.0864,-0.0855,-0.0851,-0.0851,-0.0855,-0.0853,-0.0867,-0.0836,-0.087,-0.0873,-0.0875,-0.0873,-0.0836,-0.0834,-0.0852,-0.0851,-0.0851,0,0,-0.0909,-0.0915,-0.0918,-0.0922,-0.0913,-0.0919,-0.0891,-0.0889,-0.0889,-0.0869,-0.087,-0.0861,-0.0856,-0.0863,-0.0868,-0.0863,-0.0851,-0.0876,-0.0878,-0.0874,-0.0836,-0.0834,-0.0833,-0.0852,-0.0852,-0.0852,0,0,-0.0933,-0.0931,-0.0954,-0.0951,-0.0951,-0.0937,-0.094,-0.0922,-0.091,-0.0913,-0.0895,-0.0889,-0.0893,-0.0882,-0.088,-0.0898,-0.0864,-0.0901,-0.0913,-0.0878,-0.0876,-0.0873,-0.0818,-0.081,-0.0904,-0.0904,-0.0904,0,-0.0937,-0.0964,-0.0957,-0.0978,-0.0973,-0.095,-0.0962,-0.0952,-0.0937,-0.0927,-0.0919,-0.09,-0.0898,-0.0897,-0.0902,-0.0903,-0.087,-0.0903,-0.088,-0.0877,-0.0874,-0.0818,-0.0809,-0.0905,-0.0905,-0.0905,-0.0905,0,-0.0981,-0.0996,-0.1007,-0.1026,-0.1021,-0.1025,-0.1011,-0.1004,-0.0984,-0.0965,-0.0952,-0.0937,-0.092,-0.0922,-0.092,-0.0905,-0.0883,-0.0884,-0.087,-0.0874,-0.0814,-0.0805,-0.0907,-0.0907,-0.0906,-0.0906,0,0,-0.0998,-0.1031,-0.1033,-0.1038,-0.1042,-0.1034,-0.1043,-0.1029,-0.1013,-0.1,-0.0973,-0.0975,-0.0949,-0.0945,-0.0933,-0.0909,-0.0861,-0.0894,-0.0892,-0.0835,-0.0764,-0.0706,-0.069,-0.0859,-0.0858,-0.0857,-0.0724,0,-0.1029,-0.107,-0.1079,-0.1093,-0.1101,-0.1081,-0.1078,-0.1061,-0.1036,-0.1004,-0.0981,-0.0953,-0.0964,-0.0943,-0.0926,-0.0872,-0.0841,-0.0896,-0.0772,-0.0768,-0.0713,-0.0679,-0.0611,-0.0484,-0.0715,-0.0713,-0.0712,0,-0.1068,-0.1085,-0.111,-0.1106,-0.1105,-0.1107,-0.1073,-0.1069,-0.1031,-0.101,-0.0986,-0.0954,-0.0919,-0.092,-0.0837,-0.0871,-0.0823,-0.0783,-0.0777,-0.0709,-0.0694,-0.0521,-0.0458,-0.0491,-0.0697,-0.0698,-0.07,0,-0.1066,-0.11,-0.1112,-0.1113,-0.1111,-0.1106,-0.1095,-0.1065,-0.1032,-0.1002,-0.0955,-0.0932,-0.0871,-0.0838,-0.0757,-0.0794,-0.0642,-0.0679,-0.0581,-0.0575,-0.0485,-0.0474,-0.0436,-0.0617,-0.0617,-0.0618,-0.0618,0,-0.1084,-0.1086,-0.1109,-0.1108,-0.1088,-0.1099,-0.1064,-0.105,-0.1008,-0.093,-0.0947,-0.0863,-0.0845,-0.0755,-0.0727,-0.0601,-0.0613,-0.0564,-0.0534,-0.049,-0.0482,-0.0482,-0.0525,-0.0613,-0.0614,-0.0615,-0.0616,0,-0.1053,-0.1088,-0.1081,-0.1087,-0.1084,-0.1058,-0.1021,-0.0977,-0.0967,-0.0861,-0.0839,-0.0779,-0.0658,-0.0621,-0.0522,-0.0519,-0.0421,-0.0394,-0.0332,-0.0299,-0.0275,-0.0322,-0.0216,-0.0223,-0.0277,-0.0275,-0.0273,0,-0.1035,-0.1038,-0.1036,-0.1008,-0.1001,-0.0977,-0.0936,-0.0941,-0.0881,-0.0777,-0.0699,-0.0586,-0.0448,-0.0307,-0.0277,-0.0199,-0.0272,-0.0135,-0.0209,-0.0245,-0.0276,-0.0309,-0.0327,-0.0089,-0.0086,-0.0083,-0.0081,0,-0.0962,-0.0964,-0.0939,-0.0894,-0.0858,-0.0824,-0.0776,-0.0726,-0.0685,-0.0584,-0.0411,-0.0303,-0.0176,-0.0046,0.0002,0.0014,-0.0147,-0.0079,-0.0128,-0.013,-0.0148,-0.0149,-0.0204,-0.0057,-0.006,-0.0061,-0.0063,-0.0064,-0.086,-0.0823,-0.079,-0.073,-0.0696,-0.0635,-0.058,-0.0503,-0.038,-0.0192,-0.015,0.0067,0.0128,0.0222,0.0187,0.0134,0.0074,0.0098,0.0049,0.0022,-0.0002,0.0002,0.0178,0.0177,0.0176,0.0175,0.0174,0,-0.0699,-0.0675,-0.0621,-0.0554,-0.0482,-0.0517,-0.043,-0.0352,-0.016,0.0034,0.021,0.0431,0.0492,0.0436,0.037,0.0281,0.0199,0.0205,0.0152,0.0126,0.0141,0.0127,0.0316,0.0316,0.0316,0.0316,0.0316,0.0316,-0.0607,-0.0514,-0.05,-0.0356,-0.0318,-0.0232,-0.0177,-0.0053,0.0085,0.0387,0.0583,0.0697,0.0683,0.0507,0.0363,0.0305,0.0191,0.0214,0.0121,0.0095,0.0079,0.0064,0.0041,0.0208,0.0208,0.0141,0.014,0.0139]}],[{"header":{"parameterUnit":"m.s-1","parameterCategory":2,"la1":30.2991,"la2":30.254,"lo1":-89.0895,"lo2":-89.0444,"dy":0.0017,"dx":0.0017,"nx":28,"ny":28,"refTime":"2024-03-21T09:00:00:Z","depth":"2","parameterNumber":2,"parameterNumberName":"U-component_of_CURRENTS"},"data":[0,0,0,0,0,0,0,0,0,0,0,0,0,0,0,0,0,0,0,0,0,0,0,0,0,0,0,0,0,0,0,0,0,0,0,0,0,0,0,0,0,0,0,0,0,0,0,0,0,0,0,0,0,0,0,0,0,0,0.1507,0.1507,0,0.1502,0.1501,0.15,0.1472,0.1472,0.1473,0.1473,0.1448,0.1447,0.1446,0,0,0,0,0,0,0,0,0,0,0,0,0,0.1522,0.1521,0.1507,0.1507,0.1508,0.1502,0.1501,0.15,0.1472,0.1472,0.1473,0.1473,0.1448,0.1447,0.1446,0,0,0,0,0,0,0,0,0,0,0,0,0,0.1507,0.1521,0.1506,0.1501,0.1501,0.1502,0.1501,0.1499,0.1472,0.1472,0.1473,0.1473,0.1448,0.1447,0.1446,0.143,0,0,0.1442,0.1441,0,0,0,0,0,0,0,0,0.1507,0.1505,0.1501,0.1502,0.1502,0.1497,0.1498,0.1479,0.1472,0.1472,0.1473,0.1473,0.1469,0.1466,0.145,0.1429,0.1428,0.1442,0.1441,0.144,0.144,0,0,0,0,0,0,0,0.1508,0.1505,0.1494,0.1502,0.1503,0.151,0.1507,0.1493,0.146,0.1472,0.1473,0.1488,0.1467,0.1451,0.1449,0.1427,0.1442,0.144,0.144,0.1439,0.1487,0.1488,0,0,0,0,0,0,0.1527,0.1506,0.1495,0.1495,0.1517,0.151,0.1506,0.149,0.1461,0.146,0.1488,0.1487,0.1453,0.1451,0.1448,0.1516,0.144,0.1439,0.1438,0.1484,0.1487,0.1489,0,0,0,0,0,0,0.1527,0.1525,0.1495,0.1511,0.1509,0.151,0.1492,0.149,0.1504,0.1475,0.1471,0.1509,0.1453,0.145,0.1454,0.1511,0.1438,0.1437,0.1482,0.1485,0.1488,0.1595,0,0,0,0,0,0,0.1526,0.1523,0.1528,0.1511,0.1509,0.1511,0.1493,0.149,0.1516,0.1515,0.1492,0.1488,0.1453,0.1457,0.1453,0.1508,0.1436,0.1479,0.1483,0.1487,0.1589,0.1601,0.1612,0,0,0,0,0,0.1526,0.1523,0.1527,0.1528,0.151,0.1512,0.1511,0.1508,0.1517,0.1521,0.1508,0.149,0.148,0.1456,0.1452,0.1508,0.1478,0.1482,0.1487,0.1583,0.1599,0.1612,0,0,0,0,0,0,0.1552,0.1521,0.1525,0.1518,0.1529,0.1512,0.1525,0.153,0.1523,0.1531,0.1499,0.1493,0.1522,0.1499,0.1474,0.1535,0.1483,0.1487,0.1559,0.1572,0.1584,0.1568,0.1435,0,0,0,0,0,0.1559,0.154,0.1532,0.154,0.1542,0.1543,0.1552,0.1553,0.1546,0.1544,0.1534,0.153,0.1533,0.1539,0.1526,0.1553,0.1535,0.1592,0.1604,0.1614,0.16,0.1633,0.1646,0.1505,0.1504,0.1504,0,0,0.159,0.1563,0.1565,0.1545,0.1549,0.1557,0.1546,0.1568,0.1587,0.1544,0.1568,0.1564,0.1547,0.1573,0.1588,0.1566,0.1649,0.162,0.1628,0.1608,0.1639,0.1652,0.1664,0.1508,0.1507,0.1507,0,0,0.1617,0.1603,0.1591,0.1592,0.16,0.1595,0.1613,0.1613,0.1623,0.1648,0.163,0.1651,0.1658,0.1651,0.1651,0.1719,0.1704,0.1745,0.1796,0.183,0.1842,0.1852,0.1862,0.1872,0.1757,0.1758,0.1758,0,0.1664,0.1626,0.1601,0.1593,0.1604,0.1618,0.1629,0.1642,0.1653,0.1671,0.1672,0.1703,0.169,0.1724,0.1751,0.1745,0.1758,0.1746,0.1845,0.1854,0.1863,0.1871,0.188,0.1763,0.1763,0.1762,0.1762,0,0.1662,0.1656,0.1658,0.1637,0.1649,0.1665,0.1679,0.1707,0.1736,0.1754,0.1805,0.1792,0.1817,0.1833,0.1811,0.1877,0.1866,0.1852,0.1808,0.1883,0.1887,0.1895,0.1772,0.1769,0.1768,0.1766,0,0,0.1697,0.1661,0.1671,0.167,0.1669,0.1683,0.1721,0.1751,0.1803,0.1832,0.1887,0.1906,0.1928,0.1927,0.1925,0.1948,0.2023,0.1938,0.1937,0.1945,0.2099,0.201,0.201,0.2046,0.2047,0.2049,0.2084,0,0.1708,0.1702,0.1678,0.1709,0.1703,0.1722,0.1761,0.1804,0.1849,0.1909,0.1929,0.198,0.1962,0.1997,0.2023,0.201,0.2047,0.2013,0.2026,0.2026,0.1935,0.2017,0.1814,0.1822,0.2091,0.2092,0.2093,0,0.1691,0.1685,0.1706,0.1723,0.173,0.1766,0.1833,0.1873,0.1951,0.1988,0.2048,0.2073,0.211,0.2093,0.2125,0.2115,0.2124,0.2109,0.2111,0.1986,0.195,0.1788,0.1825,0.2106,0.2105,0.2104,0.2103,0,0.1689,0.17,0.172,0.1726,0.1757,0.1794,0.1834,0.191,0.1949,0.2053,0.2088,0.2155,0.2173,0.2206,0.2182,0.2181,0.22,0.2195,0.212,0.2113,0.1915,0.1887,0.2237,0.2237,0.2237,0.2237,0.2237,0,0.1669,0.1687,0.1734,0.1746,0.1802,0.1824,0.1907,0.1957,0.203,0.2064,0.2143,0.2156,0.2205,0.2216,0.2218,0.2178,0.224,0.2131,0.2122,0.1948,0.1924,0.2139,0.2127,0.2238,0.2238,0.2238,0.2237,0,0.1655,0.1674,0.1701,0.1765,0.1793,0.1848,0.1929,0.1966,0.2051,0.2092,0.212,0.2166,0.2179,0.2207,0.2229,0.2192,0.2182,0.2158,0.1935,0.1899,0.207,0.2064,0.2097,0.2095,0.2092,0.209,0.2089,0,0.1646,0.166,0.1735,0.1748,0.1781,0.1859,0.1887,0.1975,0.1983,0.2063,0.204,0.2101,0.208,0.2083,0.2047,0.2047,0.213,0.1859,0.1814,0.207,0.2059,0.2056,0.2053,0.1603,0.1598,0.1593,0.159,0,0.165,0.1689,0.1713,0.1736,0.1768,0.1815,0.1854,0.1848,0.191,0.1933,0.1926,0.1935,0.1928,0.1805,0.1804,0.1779,0.1847,0.1768,0.2105,0.1665,0.1606,0.1595,0.1607,0.155,0.1554,0.1557,0.1559,0.1561,0.1667,0.1662,0.1689,0.1702,0.1741,0.1739,0.1702,0.172,0.1722,0.1666,0.1738,0.1658,0.1648,0.1518,0.1475,0.1459,0.161,0.1535,0.1548,0.1566,0.1498,0.1438,0.1336,0.1339,0.1341,0.1343,0.1345,0,0.1624,0.1606,0.1633,0.1611,0.1601,0.1672,0.1632,0.1531,0.1454,0.1453,0.1435,0.1247,0.1148,0.1173,0.1067,0.1074,0.1067,0.1044,0.1016,0.1055,0.109,0.0998,0.0704,0.0702,0.07,0.0699,0,0,0.1591,0.1561,0.1551,0.1495,0.147,0.1389,0.133,0.1229,0.1169,0.1053,0.099,0.1029,0.1068,0.0842,0.0834,0.0745,0.0892,0.0708,0.1217,0.1218,0.1251,0.1362,0.1263,0,0,0,0,0]},{"header":{"parameterUnit":"m.s-1","parameterCategory":2,"la1":30.2991,"la2":30.254,"lo1":-89.0895,"lo2":-89.0444,"dy":0.0017,"dx":0.0017,"nx":28,"ny":28,"refTime":"2024-03-21T09:00:00:Z","depth":"2","parameterNumber":3,"parameterNumberName":"V-component_of_CURRENTS"},"data":[0,0,0,0,0,0,0,0,0,0,0,0,0,0,0,0,0,0,0,0,0,0,0,0,0,0,0,0,0,0,0,0,0,0,0,0,0,0,0,0,0,0,0,0,0,0,0,0,0,0,0,0,0,0,0,0,0,0,0.0302,0.0301,0,0.0257,0.0256,0.0256,0.0233,0.0233,0.0233,0.0233,0.0165,0.0164,0.0162,0,0,0,0,0,0,0,0,0,0,0,0,0,0.0297,0.0298,0.0302,0.0301,0.0301,0.0257,0.0256,0.0256,0.0233,0.0233,0.0233,0.0233,0.0166,0.0164,0.0162,0,0,0,0,0,0,0,0,0,0,0,0,0,0.0282,0.0298,0.0302,0.0284,0.0281,0.0257,0.0256,0.0255,0.0233,0.0233,0.0233,0.0233,0.0167,0.0164,0.0162,0.0149,0,0,0.0154,0.0153,0,0,0,0,0,0,0,0,0.0283,0.0282,0.0287,0.0285,0.0282,0.025,0.023,0.0218,0.0233,0.0252,0.0233,0.0233,0.0191,0.0186,0.018,0.0145,0.0143,0.0154,0.0152,0.0151,0.015,0,0,0,0,0,0,0,0.0284,0.0283,0.0285,0.0286,0.0283,0.0253,0.0251,0.0227,0.0223,0.0251,0.0249,0.0242,0.019,0.0182,0.0178,0.0142,0.0154,0.0151,0.015,0.0149,0.0096,0.0096,0,0,0,0,0,0,0.0292,0.0285,0.0286,0.0284,0.0281,0.0253,0.0251,0.0261,0.0224,0.0218,0.0242,0.0241,0.0187,0.0181,0.0176,0.0171,0.0151,0.0149,0.0147,0.0096,0.0096,0.0096,0,0,0,0,0,0,0.0292,0.0293,0.0288,0.0281,0.0278,0.0254,0.0264,0.026,0.0247,0.0218,0.0212,0.0234,0.0187,0.0179,0.0159,0.0167,0.0147,0.0145,0.0096,0.0096,0.0096,0.0152,0,0,0,0,0,0,0.0292,0.0294,0.0301,0.0283,0.0279,0.0277,0.0264,0.0259,0.0244,0.0242,0.0208,0.0202,0.0186,0.0163,0.0157,0.0163,0.0143,0.0096,0.0096,0.0096,0.015,0.0154,0.0158,0,0,0,0,0,0.0293,0.0304,0.0302,0.0302,0.0292,0.0277,0.0273,0.0255,0.0243,0.0242,0.0222,0.0203,0.016,0.0161,0.0153,0.016,0.0096,0.0096,0.0096,0.0148,0.0153,0.0158,0,0,0,0,0,0,0.0299,0.0303,0.03,0.0311,0.0296,0.0273,0.0266,0.0253,0.0235,0.023,0.0203,0.0196,0.0184,0.016,0.0162,0.0145,0.0125,0.0124,0.0167,0.0172,0.0175,0.0224,0.0141,0,0,0,0,0,0.0307,0.0321,0.0309,0.0316,0.031,0.0287,0.0277,0.0265,0.0246,0.0237,0.0213,0.019,0.018,0.0167,0.015,0.0135,0.0132,0.0133,0.0137,0.014,0.0174,0.0183,0.0192,0.0098,0.0098,0.0098,0,0,0.0303,0.0312,0.0315,0.0318,0.0304,0.0308,0.0281,0.0266,0.0271,0.0232,0.0224,0.0201,0.0179,0.0172,0.0164,0.0152,0.0158,0.0141,0.0144,0.0177,0.0185,0.0194,0.0202,0.0098,0.0098,0.0098,0,0,0.0309,0.0319,0.0329,0.0329,0.0318,0.0313,0.0309,0.0285,0.0276,0.0262,0.0245,0.0241,0.0195,0.0204,0.0199,0.0213,0.0181,0.0183,0.024,0.0247,0.0256,0.0264,0.0245,0.0251,0.0182,0.0182,0.0182,0,0.03,0.0331,0.0325,0.034,0.0347,0.032,0.0332,0.0321,0.0292,0.0301,0.0265,0.0254,0.0226,0.0258,0.0258,0.0227,0.0209,0.0225,0.0255,0.0263,0.027,0.0249,0.0255,0.0185,0.0185,0.0184,0.0184,0,0.032,0.0343,0.0348,0.0372,0.0376,0.0381,0.0374,0.037,0.035,0.0347,0.0358,0.0328,0.0331,0.0309,0.0285,0.0322,0.0284,0.0263,0.0251,0.0284,0.0258,0.0263,0.0189,0.0188,0.0187,0.0186,0,0,0.0299,0.0352,0.0352,0.0389,0.04,0.0412,0.0423,0.0443,0.0473,0.0437,0.0482,0.0455,0.0443,0.0438,0.0407,0.041,0.0423,0.0354,0.0353,0.0349,0.0415,0.0381,0.0382,0.0397,0.0399,0.04,0.0368,0,0.0313,0.037,0.0385,0.0438,0.0475,0.0474,0.0498,0.0513,0.0516,0.0549,0.0535,0.0553,0.0489,0.049,0.0488,0.0449,0.0443,0.0433,0.0374,0.0373,0.035,0.0391,0.039,0.0362,0.0373,0.0373,0.0374,0,0.0329,0.0379,0.0436,0.0517,0.0528,0.0546,0.061,0.0624,0.0661,0.0663,0.0685,0.0671,0.0685,0.0619,0.0583,0.0571,0.0505,0.0465,0.0462,0.0428,0.0351,0.0335,0.0371,0.0382,0.0381,0.0381,0.038,0,0.0354,0.0419,0.0479,0.0502,0.0571,0.0593,0.0617,0.0657,0.0693,0.074,0.0775,0.0782,0.0778,0.0727,0.062,0.0602,0.0571,0.0535,0.0446,0.0441,0.0434,0.0426,0.0523,0.0523,0.0523,0.0523,0.0523,0,0.0391,0.0439,0.0495,0.0533,0.0612,0.0631,0.07,0.0729,0.0779,0.0838,0.0833,0.0874,0.0802,0.0765,0.067,0.0571,0.0601,0.0483,0.0448,0.0447,0.0441,0.0457,0.045,0.0522,0.0522,0.0523,0.0523,0,0.042,0.0452,0.0543,0.0614,0.063,0.0689,0.0748,0.0806,0.0831,0.091,0.0926,0.0943,0.0888,0.0802,0.071,0.0625,0.0542,0.0489,0.0479,0.0445,0.0394,0.039,0.0422,0.0421,0.042,0.0419,0.0418,0,0.0454,0.0493,0.0594,0.0645,0.0675,0.0741,0.0787,0.0831,0.0877,0.0944,0.0985,0.0971,0.0961,0.0823,0.0681,0.0537,0.051,0.0434,0.0422,0.043,0.0393,0.039,0.0387,0.0414,0.0413,0.0413,0.0412,0,0.0518,0.0539,0.0604,0.0684,0.075,0.0833,0.0878,0.0929,0.0971,0.1026,0.1061,0.1065,0.0952,0.0819,0.0629,0.053,0.0466,0.0419,0.0452,0.0438,0.042,0.0383,0.0382,0.0408,0.0408,0.0408,0.0409,0.0409,0.056,0.0604,0.0648,0.0724,0.0804,0.0871,0.0926,0.0961,0.1022,0.1065,0.1085,0.1057,0.0962,0.0702,0.0562,0.0405,0.0428,0.0365,0.0368,0.0371,0.0376,0.0357,0.0332,0.0332,0.0332,0.0332,0.0332,0,0.0601,0.0615,0.0675,0.077,0.0838,0.0864,0.095,0.0983,0.1028,0.1052,0.1061,0.0926,0.0811,0.067,0.0445,0.0338,0.0332,0.0284,0.031,0.0316,0.0321,0.0323,0.0265,0.0264,0.0263,0.0263,0,0,0.0617,0.0646,0.0643,0.0738,0.0805,0.0877,0.0922,0.0966,0.0977,0.0971,0.0933,0.0951,0.0816,0.0636,0.0505,0.0373,0.036,0.034,0.0408,0.0461,0.0467,0.0386,0.0399,0,0,0,0,0]}],[{"header":{"parameterUnit":"m.s-1","parameterCategory":2,"la1":30.2991,"la2":30.254,"lo1":-89.0895,"lo2":-89.0444,"dy":0.0017,"dx":0.0017,"nx":28,"ny":28,"refTime":"2024-03-21T09:00:00:Z","depth":"4","parameterNumber":2,"parameterNumberName":"U-component_of_CURRENTS"},"data":[0,0,0,0,0,0,0,0,0,0,0,0,0,0,0,0,0,0,0,0,0,0,0,0,0,0,0,0,0,0,0,0,0,0,0,0,0,0,0,0,0,0,0,0,0,0,0,0,0,0,0,0,0,0,0,0,0,0,0.0296,0.0296,0,0.0312,0.0312,0.0312,0.0337,0.0338,0.0338,0.0338,0.0422,0.0424,0.0426,0,0,0,0,0,0,0,0,0,0,0,0,0,0.0296,0.0296,0.0296,0.0296,0.0296,0.0312,0.0312,0.0312,0.0337,0.0338,0.0338,0.0339,0.0421,0.0423,0.0426,0,0,0,0,0,0,0,0,0,0,0,0,0,0.0303,0.0296,0.0296,0.031,0.0311,0.0312,0.0312,0.0312,0.0337,0.0338,0.0338,0.0339,0.042,0.0423,0.0426,0.0433,0,0,0.0435,0.0436,0,0,0,0,0,0,0,0,0.0303,0.0303,0.0308,0.0309,0.031,0.0322,0.0342,0.0356,0.0337,0.0328,0.0338,0.0339,0.0394,0.0399,0.0401,0.0437,0.0441,0.0435,0.0437,0.0438,0.0439,0,0,0,0,0,0,0,0.0302,0.0303,0.0303,0.0308,0.0309,0.0318,0.0319,0.0345,0.036,0.0329,0.0331,0.0331,0.0395,0.0398,0.0403,0.0442,0.0435,0.0437,0.0439,0.044,0.054,0.0541,0,0,0,0,0,0,0.0297,0.0302,0.0303,0.0304,0.0306,0.0317,0.0319,0.0319,0.0358,0.0364,0.033,0.0332,0.0393,0.04,0.0407,0.0461,0.0438,0.0441,0.0442,0.0539,0.054,0.0541,0,0,0,0,0,0,0.0297,0.0297,0.0302,0.0302,0.0304,0.0316,0.0316,0.0319,0.0332,0.0358,0.0365,0.0342,0.0394,0.0403,0.0439,0.0462,0.0442,0.0444,0.0538,0.054,0.0541,0.0541,0,0,0,0,0,0,0.0297,0.0297,0.0306,0.0302,0.0303,0.0303,0.0315,0.0319,0.033,0.0332,0.037,0.0378,0.0395,0.0435,0.0442,0.0466,0.0447,0.0537,0.0539,0.054,0.054,0.0542,0.0545,0,0,0,0,0,0.0297,0.0302,0.0306,0.0307,0.0312,0.0303,0.0305,0.0317,0.033,0.0332,0.0364,0.0377,0.0451,0.0437,0.0446,0.0471,0.0536,0.0538,0.054,0.0539,0.0542,0.0544,0,0,0,0,0,0,0.0308,0.0305,0.031,0.0315,0.031,0.0307,0.0315,0.0321,0.0345,0.0358,0.0384,0.0394,0.0437,0.0452,0.0436,0.0506,0.0498,0.0502,0.0494,0.0498,0.05,0.0504,0.0449,0,0,0,0,0,0.0314,0.0319,0.031,0.0316,0.0314,0.0317,0.0321,0.0324,0.0339,0.035,0.038,0.0416,0.045,0.0471,0.0501,0.0535,0.056,0.0559,0.0561,0.0563,0.0573,0.0632,0.064,0.0548,0.0548,0.0548,0,0,0.0321,0.032,0.0324,0.032,0.0321,0.032,0.0321,0.0324,0.0338,0.0357,0.0399,0.0425,0.0461,0.0501,0.0522,0.0518,0.06,0.0566,0.0567,0.0576,0.0635,0.0644,0.0652,0.055,0.055,0.0549,0,0,0.0327,0.0334,0.0336,0.0333,0.0331,0.0331,0.0332,0.0336,0.0355,0.0383,0.041,0.0446,0.0494,0.0525,0.0546,0.0579,0.0609,0.0595,0.0612,0.0669,0.0677,0.0685,0.0716,0.0726,0.0597,0.0597,0.0597,0,0.034,0.0337,0.0335,0.0334,0.0338,0.0336,0.0338,0.0353,0.0374,0.0402,0.0399,0.0488,0.0506,0.0569,0.0577,0.0585,0.0618,0.0596,0.0672,0.068,0.0688,0.0718,0.0729,0.0597,0.0597,0.0597,0.0597,0,0.0338,0.0343,0.0343,0.0345,0.0349,0.0348,0.0359,0.038,0.0402,0.0424,0.0489,0.0516,0.0577,0.0581,0.0586,0.0657,0.0662,0.0666,0.0663,0.0697,0.0726,0.0738,0.0597,0.0597,0.0597,0.0597,0,0,0.0341,0.0343,0.0344,0.035,0.0355,0.0355,0.0387,0.0415,0.0456,0.0485,0.0546,0.0587,0.0618,0.0645,0.0665,0.0697,0.076,0.0705,0.0708,0.0731,0.0881,0.079,0.0794,0.0786,0.0789,0.0791,0.0875,0,0.034,0.0343,0.0346,0.0357,0.0358,0.0376,0.0411,0.0445,0.0482,0.0544,0.0587,0.0651,0.0641,0.0679,0.0715,0.0755,0.0795,0.0736,0.0849,0.0852,0.0764,0.0806,0.0798,0.0883,0.0886,0.0888,0.089,0,0.0327,0.0334,0.0345,0.0371,0.0376,0.0396,0.0454,0.0483,0.0565,0.0602,0.0673,0.0717,0.0787,0.0767,0.0865,0.0835,0.0866,0.088,0.0884,0.081,0.0783,0.0847,0.0911,0.091,0.0908,0.0906,0.0905,0,0.0312,0.033,0.0343,0.0348,0.0381,0.0412,0.0442,0.0513,0.0563,0.0654,0.0709,0.0793,0.0858,0.0907,0.094,0.0923,0.1031,0.1014,0.0962,0.0956,0.1011,0.1002,0.1093,0.1093,0.1093,0.1092,0.1092,0,0.0296,0.0302,0.0347,0.0347,0.0397,0.042,0.0493,0.0531,0.0621,0.0685,0.0755,0.0816,0.0901,0.0969,0.098,0.1005,0.1077,0.0976,0.0979,0.1006,0.0996,0.1018,0.1009,0.1096,0.1095,0.1094,0.1094,0,0.0271,0.0287,0.0306,0.0357,0.0386,0.0425,0.0525,0.0574,0.0654,0.0742,0.0779,0.0877,0.0948,0.1009,0.1087,0.1057,0.1079,0.1072,0.1092,0.1094,0.0955,0.0944,0.1026,0.1024,0.1022,0.102,0.1019,0,0.0252,0.026,0.0321,0.0346,0.0375,0.045,0.0503,0.0588,0.0634,0.0757,0.0786,0.09,0.0954,0.0999,0.1048,0.1082,0.1066,0.1072,0.1009,0.0957,0.0953,0.0945,0.0937,0.1016,0.1015,0.1015,0.1014,0,0.0229,0.0258,0.0288,0.0343,0.0396,0.0444,0.0516,0.0562,0.0649,0.0741,0.0787,0.0833,0.0913,0.0952,0.0998,0.1009,0.1058,0.1051,0.1054,0.0996,0.0945,0.0941,0.0936,0.1007,0.1008,0.1009,0.1009,0,0.0236,0.0254,0.0299,0.0351,0.0387,0.04,0.0459,0.0515,0.0578,0.0705,0.0714,0.0813,0.0898,0.0915,0.0943,0.0961,0.0941,0.0898,0.0909,0.0918,0.084,0.0757,0.0776,0,0,0,0,0,0.0251,0.0266,0.0301,0.0331,0.0348,0.0371,0.044,0.0495,0.0603,0.0615,0.0664,0.0721,0.0775,0.0817,0.0816,0.0891,0.0942,0.0883,0.0896,0.0969,0.0977,0.0894,0,0,0,0,0,0,0.0259,0.029,0.0301,0.029,0.0299,0.0314,0.0353,0.0425,0.0436,0.0548,0.0584,0.066,0.0727,0.0772,0.0797,0.0812,0.08,0.0945,0.0942,0.0965,0.0972,0.0978,0.0895,0,0,0,0,0]},{"header":{"parameterUnit":"m.s-1","parameterCategory":2,"la1":30.2991,"la2":30.254,"lo1":-89.0895,"lo2":-89.0444,"dy":0.0017,"dx":0.0017,"nx":28,"ny":28,"refTime":"2024-03-21T09:00:00:Z","depth":"4","parameterNumber":3,"parameterNumberName":"V-component_of_CURRENTS"},"data":[0,0,0,0,0,0,0,0,0,0,0,0,0,0,0,0,0,0,0,0,0,0,0,0,0,0,0,0,0,0,0,0,0,0,0,0,0,0,0,0,0,0,0,0,0,0,0,0,0,0,0,0,0,0,0,0,0,0,0.0376,0.0376,0,0.0377,0.0377,0.0377,0.0376,0.0376,0.0376,0.0376,0.0369,0.0369,0.0369,0,0,0,0,0,0,0,0,0,0,0,0,0,0.0363,0.0363,0.0376,0.0376,0.0376,0.0377,0.0377,0.0377,0.0376,0.0376,0.0376,0.0376,0.037,0.0369,0.0369,0,0,0,0,0,0,0,0,0,0,0,0,0,0.0367,0.0363,0.0376,0.0376,0.0376,0.0377,0.0377,0.0377,0.0376,0.0376,0.0376,0.0376,0.037,0.0369,0.0369,0.0368,0,0,0.0368,0.0368,0,0,0,0,0,0,0,0,0.0366,0.0367,0.0376,0.0376,0.0376,0.0377,0.037,0.0374,0.0376,0.0376,0.0376,0.0376,0.0371,0.0371,0.0371,0.0368,0.0368,0.0368,0.0368,0.0368,0.0368,0,0,0,0,0,0,0,0.0366,0.0367,0.0376,0.0376,0.0376,0.0373,0.0373,0.0371,0.0373,0.0376,0.0376,0.0376,0.0371,0.0371,0.0371,0.0368,0.0368,0.0368,0.0368,0.0368,0.0376,0.0376,0,0,0,0,0,0,0.0367,0.0367,0.0376,0.0376,0.0371,0.0373,0.0373,0.0376,0.0373,0.0373,0.0376,0.0376,0.0372,0.0371,0.0371,0.0387,0.0368,0.0368,0.0368,0.0375,0.0376,0.0376,0,0,0,0,0,0,0.0367,0.0368,0.0376,0.0372,0.0372,0.0373,0.0376,0.0376,0.0381,0.0374,0.0374,0.0382,0.0372,0.0371,0.0379,0.0386,0.0368,0.0368,0.0375,0.0375,0.0376,0.0408,0,0,0,0,0,0,0.0367,0.0368,0.0374,0.0372,0.0373,0.0381,0.0376,0.0376,0.0382,0.0382,0.0379,0.0378,0.0372,0.038,0.0379,0.0385,0.0367,0.0375,0.0375,0.0376,0.0407,0.041,0.0413,0,0,0,0,0,0.0366,0.037,0.0375,0.0376,0.038,0.0381,0.0382,0.0382,0.0382,0.0386,0.0388,0.0378,0.0383,0.038,0.0379,0.0385,0.0374,0.0375,0.0376,0.0406,0.0409,0.0412,0,0,0,0,0,0,0.0366,0.037,0.0375,0.038,0.0385,0.0381,0.0387,0.0386,0.0391,0.0394,0.0386,0.0386,0.0393,0.0386,0.0383,0.0389,0.0375,0.0376,0.0398,0.0402,0.0404,0.0411,0.0367,0,0,0,0,0,0.0371,0.0376,0.0379,0.0385,0.039,0.0391,0.0393,0.0393,0.0395,0.0397,0.0397,0.0396,0.0394,0.0396,0.0393,0.04,0.0379,0.0402,0.0405,0.0407,0.0412,0.0378,0.0377,0.0379,0.0379,0.0379,0,0,0.0376,0.0376,0.0382,0.0386,0.0391,0.0404,0.0392,0.0399,0.0411,0.0396,0.0416,0.0406,0.0398,0.0406,0.0408,0.0402,0.0398,0.0408,0.0411,0.0414,0.0378,0.0378,0.0378,0.0379,0.0379,0.0379,0,0,0.0388,0.0389,0.0402,0.0407,0.0415,0.0414,0.0418,0.0423,0.0428,0.0442,0.0432,0.0428,0.0434,0.0425,0.0422,0.0438,0.0413,0.0438,0.046,0.0427,0.0426,0.0425,0.0406,0.0403,0.0441,0.0441,0.0441,0,0.0395,0.0412,0.0405,0.042,0.0431,0.0422,0.0443,0.0445,0.0452,0.0457,0.0454,0.0452,0.0442,0.0444,0.0451,0.0444,0.0426,0.0449,0.043,0.0429,0.0427,0.0407,0.0404,0.0443,0.0442,0.0442,0.0442,0,0.0421,0.0437,0.0444,0.0463,0.047,0.0484,0.0489,0.0497,0.05,0.0497,0.0503,0.0489,0.0486,0.048,0.0473,0.0462,0.0453,0.0436,0.0421,0.0429,0.0408,0.0403,0.0445,0.0444,0.0444,0.0443,0,0,0.0429,0.0459,0.0464,0.0481,0.0496,0.0501,0.0525,0.0537,0.0544,0.0546,0.0554,0.0546,0.053,0.0526,0.0509,0.0483,0.0457,0.0461,0.0459,0.0442,0.0394,0.0383,0.0377,0.0434,0.0434,0.0433,0.0385,0,0.0456,0.0493,0.0501,0.0536,0.0557,0.056,0.0578,0.0584,0.0581,0.0584,0.0566,0.0564,0.0551,0.0546,0.052,0.0471,0.0447,0.0473,0.0389,0.0386,0.0375,0.0372,0.0431,0.0382,0.0381,0.038,0.038,0,0.0483,0.0502,0.0547,0.0573,0.0582,0.0603,0.0621,0.0634,0.063,0.0628,0.0622,0.0603,0.0582,0.0559,0.049,0.0509,0.0459,0.0417,0.0414,0.0389,0.0367,0.037,0.0371,0.0372,0.0373,0.0373,0.0374,0,0.0486,0.0531,0.0567,0.058,0.061,0.0632,0.0646,0.0651,0.0665,0.0654,0.0659,0.0625,0.0615,0.0549,0.0483,0.048,0.0397,0.0377,0.0323,0.0322,0.0332,0.0333,0.032,0.032,0.032,0.032,0.032,0,0.0501,0.0527,0.0577,0.0591,0.0632,0.0648,0.0681,0.0682,0.0698,0.0708,0.0684,0.0681,0.061,0.0562,0.0489,0.0402,0.0402,0.0327,0.0305,0.0348,0.0352,0.0329,0.0331,0.0318,0.0319,0.0319,0.0319,0,0.0492,0.0527,0.0564,0.0612,0.0634,0.0659,0.0715,0.0736,0.0742,0.0757,0.0759,0.0728,0.0662,0.059,0.0478,0.0415,0.0323,0.0291,0.0358,0.0341,0.0269,0.0273,0.0218,0.0218,0.0217,0.0216,0.0216,0,0.0484,0.051,0.0575,0.0608,0.0635,0.0687,0.0727,0.0756,0.0776,0.0779,0.0783,0.0743,0.0709,0.0556,0.0469,0.0336,0.0313,0.0262,0.0252,0.0272,0.0257,0.0262,0.0267,0.0215,0.0214,0.0214,0.0214,0,0.0468,0.0501,0.0531,0.0605,0.0662,0.0716,0.0769,0.079,0.0815,0.0829,0.0793,0.0725,0.0656,0.0546,0.0455,0.0353,0.0289,0.0254,0.0254,0.0244,0.0267,0.0253,0.0259,0.0212,0.0212,0.0212,0.0212,0,0.0455,0.0477,0.0535,0.0595,0.0663,0.072,0.0756,0.0787,0.081,0.0812,0.0797,0.0727,0.0692,0.0555,0.0463,0.0373,0.0338,0.0286,0.0284,0.0286,0.0318,0.0358,0.0311,0,0,0,0,0,0.0446,0.0477,0.0527,0.0591,0.0655,0.0699,0.0771,0.0804,0.0834,0.0808,0.0802,0.0733,0.0602,0.0549,0.0456,0.0444,0.0324,0.0329,0.0263,0.0198,0.02,0.0226,0,0,0,0,0,0,0.0439,0.0488,0.0516,0.0575,0.0616,0.0691,0.0739,0.0769,0.0752,0.0767,0.0704,0.0679,0.0562,0.0648,0.0441,0.0417,0.0354,0.0277,0.0274,0.0196,0.0199,0.0201,0.0228,0,0,0,0,0]}]]